PALAPA 1

导读 | 豆包AI

PALAPA 1(也叫帕拉帕A1)是印度尼西亚,也就是发射国家ID,自主规划的首颗通信卫星,属于印尼第一代帕拉帕卫星系统的首发星,于1976年7月8日在美国卡纳维拉尔角肯尼迪航天中心发射升空,进入东经83°地球静止轨道。它搭载12个转发器,可提供电话通信、电视广播传输服务,解决了千岛之国跨群岛通信难题,让印尼成为全球第三个自建国内卫星通信系统的国家,标志着东南亚航天通信迈出里程碑一步。卫星设计寿命7年,由美国休斯公司研制,使用德尔塔2914火箭发射,发射质量574千克,整体推动印尼通信覆盖实现跨越式发展。

基本信息
目录编号:
9009
目录名称:
PALAPA 1
国际标识:
1976-066A
轨道中心:
EARTH
卫星名称:
PALAPA 1
卫星全名:
--
卫星状态:
在轨 (已飞行18201 天)
发射日期:
1976-07-08 UTC
国别 :
印度尼西亚 (ID)
星等 :
--
轨道信息
数据来源 国际轨道数据
星历时间: 2026-05-08T09:25:34+0800
13小时前
查看轨道信息
半长轴: 42221.845km
偏心率: 0.0002469
轨道倾角: 7.976°
近地点辐角 229.249°
升交点赤经 305.315°
平近点角 147.350°
近地点: 35833.283km
远地点: 35854.133km
周期: 1439.016分钟
每日圈数: 1.000684
详细信息
使用方式:
暂无
2D轨道图
3D轨道图
轨道高度分析图
轨道倾角分析图
轨道综合分析图
查看轨道综合分析图